Regional Weather Roundup
Issued by NWS

Home | Current Version | Previous Version | Text Only | Print | Product List | Glossary Off
Versions: 1 2 3 4 5 6 7 8 9 10 11 12 13 14 15 16 17 18 19 20 21 22 23 24 25 26 27 28 29 30 31 32 33 34 35 36 37 38 39 40 41 42 43 44 45 46 47 48 49 50

670
ASUS45 KPSR 041810
RWRAZ

ARIZONA HOURLY REGIONAL WEATHER ROUNDUP
NATIONAL WEATHER SERVICE PHOENIX AZ
1100 AM MST WED MAY 04 2016

NOTE: FAIR INDICATES FEW OR NO CLOUDS BELOW 12,000 FEET WITH NO
SIGNIFICANT WEATHER AND/OR OBSTRUCTIONS TO VISIBILITY.

AZZ001>003-036-041900-
NORTHWEST ARIZONA

CITY           SKY/WX    TMP DP  RH WIND       PRES   REMARKS
BULLHEAD CITY  SUNNY     86  36  16 CALM      29.90F
KINGMAN        SUNNY     82  31  15 SW9       30.02S
6HR MIN TEMP:  57; 6HR MAX TEMP:  82;

$$

AZZ004>008-015-016-018-041900-
NORTH CENTRAL ARIZONA

CITY           SKY/WX    TMP DP  RH WIND       PRES   REMARKS
GRAND CANYON   SUNNY     70  26  19 SW20G28   30.23S
6HR MIN TEMP:  34; 6HR MAX TEMP:  70;

WILLIAMS       SUNNY     68  27  21 S16G26    30.31S
PRESCOTT       SUNNY     76  28  17 SE20G26   30.14S
6HR MIN TEMP:  46; 6HR MAX TEMP:  76;

FLAGSTAFF      SUNNY     66  27  23 SW14G23   30.27S
6HR MIN TEMP:  33; 6HR MAX TEMP:  66;

PAYSON         SUNNY     75  30  19 S8G16     30.20S
PAGE           SUNNY     72  34  24 N8        30.15F
6HR MIN TEMP:  53; 6HR MAX TEMP:  72;

$$

AZZ009>014-017-041900-
NORTHEAST ARIZONA

CITY           SKY/WX    TMP DP  RH WIND       PRES   REMARKS
WINSLOW        SUNNY     77  33  20 SE10      30.17F
6HR MIN TEMP:  41; 6HR MAX TEMP:  77;

SAINT JOHNS    MOSUNNY   77  24  14 SE9       30.21F
6HR MIN TEMP:  41; 6HR MAX TEMP:  78;

WINDOW ROCK    SUNNY     68  26  20 S8        30.32F
6HR MIN TEMP:  33; 6HR MAX TEMP:  69;

SHOW LOW       SUNNY     70  23  17 S14       30.27S
$$

AZZ023-041900-
GREATER PHOENIX AREA

CITY           SKY/WX    TMP DP  RH WIND       PRES   REMARKS
PHOENIX        SUNNY     94  31  10 E16G24    29.88F
6HR MIN TEMP:  69; 6HR MAX TEMP:  94;

BUCKEYE        SUNNY     91  32  12 E20G25    29.89S
GLENDALE       SUNNY     93  32  11 E14       29.90F
LUKE AFB       SUNNY     93  33  11 E17       29.88F
6HR MIN TEMP:  63; 6HR MAX TEMP:  93;

DEER VALLEY    SUNNY     92  32  12 E13G24    29.91S
6HR MIN TEMP:  71; 6HR MAX TEMP:  92;

SCOTTSDALE     SUNNY     93  28  10 SE8G17    29.92F
6HR MIN TEMP:  66; 6HR MAX TEMP:  93;

MESA-FALCON    SUNNY    N/A N/A N/A SE14      29.89F
MESA-GATEWAY   SUNNY     93  32  11 SE20G28   29.92F
CHANDLER       SUNNY     93  32  11 E16G25    29.90F
$$

AZZ027-028-041900-
SOUTHWEST MARICOPA COUNTY AND PINAL COUNTY

CITY           SKY/WX    TMP DP  RH WIND       PRES   REMARKS
CASA GRANDE    SUNNY     91  34  13 SE9       29.92F
GILA BEND      SUNNY     94  27   9 SW7       29.84F
6HR MIN TEMP:  62; 6HR MAX TEMP:  94;

$$

AZZ503-504-507>509-041900-
SOUTHEAST ARIZONA

CITY           SKY/WX    TMP DP  RH WIND       PRES   REMARKS
TUCSON         SUNNY     92  26   9 E15G24    29.99F
6HR MIN TEMP:  62; 6HR MAX TEMP:  92;

DAVIS-MONTHAN  SUNNY     91  28  10 E20G28    29.97F
NOGALES        SUNNY     87  25  10 S7        30.06F
6HR MIN TEMP:  52; 6HR MAX TEMP:  88;

SIERRA VISTA   SUNNY     81  27  14 SE13G23   30.15S
6HR MIN TEMP:  60; 6HR MAX TEMP:  82;

DOUGLAS        SUNNY     84  30  14 SE16G25   30.12F
6HR MIN TEMP:  66; 6HR MAX TEMP:  85;

SAFFORD        SUNNY     85  31  14 SE14G28   30.11F
6HR MIN TEMP:  64; 6HR MAX TEMP:  85;

$$

AZZ020-021-025-026-031-041900-
SOUTHWEST ARIZONA

CITY           SKY/WX    TMP DP  RH WIND       PRES   REMARKS
YUMA           MOSUNNY   90  38  16 SW7       29.84S
6HR MIN TEMP:  68; 6HR MAX TEMP:  90;

$$

CAZ031-033-041-043-047-048-061-041900-
SOUTHERN CALIFORNIA

CITY           SKY/WX    TMP DP  RH WIND       PRES   REMARKS
DOWNTOWN L.A.  CLOUDY    61  55  81 CALM      29.96S
6HR MIN TEMP:  57; 6HR MAX TEMP:  61;

L.A. AIRPORT   CLOUDY    59  54  83 CALM      29.97S
6HR MIN TEMP:  57; 6HR MAX TEMP:  60;

SAN DIEGO      CLOUDY    64  52  64 NW6       29.98F
6HR MIN TEMP:  61; 6HR MAX TEMP:  64;

BURBANK        CLOUDY    61  54  77 S7        29.95F HAZE
6HR MIN TEMP:  56; 6HR MAX TEMP:  60;

ONTARIO        MOSUNNY   65  53  65 W8        29.95S HAZE
6HR MIN TEMP:  54; 6HR MAX TEMP:  66;

RIVERSIDE      SUNNY     67  54  63 MISG      29.95S
6HR MIN TEMP:  56; 6HR MAX TEMP:  67;

PALM SPRINGS   SUNNY     91  34  13 VRB6      29.84F
6HR MIN TEMP:  67; 6HR MAX TEMP:  91;

EL CENTRO NAS  MOSUNNY   88  36  15 SW3       29.83F
IMPERIAL       SUNNY     90  39  16 W3        29.81F
6HR MIN TEMP:  64; 6HR MAX TEMP:  90;

BLYTHE         SUNNY     90  37  15 E6        29.84F
6HR MIN TEMP:  65; 6HR MAX TEMP:  90;

NEEDLES        SUNNY     88  37  16 CALM      29.88F
6HR MIN TEMP:  68; 6HR MAX TEMP:  88;

$$

NVZ020-UTZ003-041900-
SOUTHERN NEVADA-UTAH

CITY           SKY/WX    TMP DP  RH WIND       PRES   REMARKS
LAS VEGAS      PTSUNNY   82  32  16 VRB3      29.91F
6HR MIN TEMP:  65; 6HR MAX TEMP:  82;

SALT LAKE CITY PTSUNNY   77  30  17 S16G23    30.11F
6HR MIN TEMP:  51; 6HR MAX TEMP:  77;

$$

NMZ009-TXZ055-041900-
NEW MEXICO-WEST TEXAS

CITY           SKY/WX    TMP DP  RH WIND       PRES   REMARKS
ALBUQUERQUE    MOSUNNY   70  29  21 SW6       30.31F
6HR MIN TEMP:  50; 6HR MAX TEMP:  70;

EL PASO        SUNNY     79  25  13 SE10      30.22F
6HR MIN TEMP:  58; 6HR MAX TEMP:  79;

$$


........................KEY........................
SKY/WX - SKY CONDITION/WEATHER
TMP    - TEMPERATURE IN FAHRENHEIT
DP     - DEW POINT IN FAHRENHEIT
RH     - RELATIVE HUMIDITY IN PERCENT
WIND   - DIRECTION AND SPEED IN MILES PER HOUR (MPH)
VRB    - VARIABLE WIND DIRECTION
PRES   - MEAN SEA LEVEL PRESSURE IN INCHES OF MERCURY
         F - FALLING PRESSURE   R - RISING PRESSURE
         S - STEADY PRESSURE
VSB    - VISIBILITY IN MILES
HX     - HEAT INDEX IN FAHRENHEIT
WCI    - WIND CHILL INDEX IN FAHRENHEIT
TC     - TEMPERATURE IN CELSIUS WHICH IS ALSO KNOWN AS
         TEMPERATURE IN CENTIGRADE
AFB    - AIR FORCE BASE
         LUKE AFB IS LUKE AIR FORCE BASE
         DAVIS-MONTHAN IS DAVIS-MONTHAN AIR FORCE BASE
NAS    - NAVAL AIR STATION
         EL CENTRO NAS IS EL CENTRO NAVAL AIR STATION
N/A    - NOT AVAILABLE





USA.gov is the U.S. government's official web portal to all federal, state and local government web resources and services.